owner,sensor,date,latitude,longitude,vertical_datum,sea_water_practical_salinity,qcFlag 
NERRS,ioos:station:NOAA.NERRS:apaebwq:1,2017-11-01T00:45:00Z,29.7858,-84.8752,1.73,19.3,1111122 
NERRS,ioos:station:NOAA.NERRS:apaebwq:1,2017-11-01T01:45:00Z,29.7858,-84.8752,1.79,19.4,1111122 
NERRS,ioos:station:NOAA.NERRS:apaebwq:1,2017-11-01T02:45:00Z,29.7858,-84.8752,1.91,19.4,1111122 
NERRS,ioos:station:NOAA.NERRS:apaebwq:1,2017-11-01T03:45:00Z,29.7858,-84.8752,2.04,19.1,1111122 
NERRS,ioos:station:NOAA.NERRS:apaebwq:1,2017-11-01T04:45:00Z,29.7858,-84.8752,2.12,19.1,1111122 
NERRS,ioos:station:NOAA.NERRS:apaebwq:1,2017-11-01T05:45:00Z,29.7858,-84.8752,2.16,18.9,1111122 
NERRS,ioos:station:NOAA.NERRS:apaebwq:1,2017-11-01T06:45:00Z,29.7858,-84.8752,2.17,19.0,1111122 
NERRS,ioos:station:NOAA.NERRS:apaebwq:1,2017-11-01T07:45:00Z,29.7858,-84.8752,2.11,19.2,1111122 
NERRS,ioos:station:NOAA.NERRS:apaebwq:1,2017-11-01T08:45:00Z,29.7858,-84.8752,2.03,19.0,1111122 
NERRS,ioos:station:NOAA.NERRS:apaebwq:1,2017-11-01T09:45:00Z,29.7858,-84.8752,1.94,18.9,1111122 
NERRS,ioos:station:NOAA.NERRS:apaebwq:1,2017-11-01T10:45:00Z,29.7858,-84.8752,1.86,18.9,1111122 
NERRS,ioos:station:NOAA.NERRS:apaebwq:1,2017-11-01T11:45:00Z,29.7858,-84.8752,1.8,19.0,1111122 
NERRS,ioos:station:NOAA.NERRS:apaebwq:1,2017-11-01T12:45:00Z,29.7858,-84.8752,1.78,18.9,1111122 
NERRS,ioos:station:NOAA.NERRS:apaebwq:1,2017-11-01T13:45:00Z,29.7858,-84.8752,1.83,18.8,1111122 
NERRS,ioos:station:NOAA.NERRS:apaebwq:1,2017-11-01T14:45:00Z,29.7858,-84.8752,1.98,18.5,1111122 
NERRS,ioos:station:NOAA.NERRS:apaebwq:1,2017-11-01T15:45:00Z,29.7858,-84.8752,2.13,17.7,1111122 
NERRS,ioos:station:NOAA.NERRS:apaebwq:1,2017-11-01T16:45:00Z,29.7858,-84.8752,2.23,18.0,1111122 
NERRS,ioos:station:NOAA.NERRS:apaebwq:1,2017-11-01T17:45:00Z,29.7858,-84.8752,2.28,18.0,1111122 
NERRS,ioos:station:NOAA.NERRS:apaebwq:1,2017-11-01T18:45:00Z,29.7858,-84.8752,2.29,18.0,1111122 
NERRS,ioos:station:NOAA.NERRS:apaebwq:1,2017-11-01T19:45:00Z,29.7858,-84.8752,2.24,18.0,1111122 
NERRS,ioos:station:NOAA.NERRS:apaebwq:1,2017-11-01T20:45:00Z,29.7858,-84.8752,2.17,18.1,1111122 
NERRS,ioos:station:NOAA.NERRS:apaebwq:1,2017-11-01T21:45:00Z,29.7858,-84.8752,2.09,18.0,1111122 
NERRS,ioos:station:NOAA.NERRS:apaebwq:1,2017-11-01T22:45:00Z,29.7858,-84.8752,2.0,17.9,1111122 
NERRS,ioos:station:NOAA.NERRS:apaebwq:1,2017-11-01T23:45:00Z,29.7858,-84.8752,1.93,18.0,1111122 
NERRS,ioos:station:NOAA.NERRS:apaebwq:1,2017-11-02T00:45:00Z,29.7858,-84.8752,1.89,18.0,1111122 
NERRS,ioos:station:NOAA.NERRS:apaebwq:1,2017-11-02T01:45:00Z,29.7858,-84.8752,1.91,17.9,1111122 
NERRS,ioos:station:NOAA.NERRS:apaebwq:1,2017-11-02T02:45:00Z,29.7858,-84.8752,2.01,17.7,1111122 
NERRS,ioos:station:NOAA.NERRS:apaebwq:1,2017-11-02T03:45:00Z,29.7858,-84.8752,2.16,17.0,1111122 
NERRS,ioos:station:NOAA.NERRS:apaebwq:1,2017-11-02T04:45:00Z,29.7858,-84.8752,2.28,16.3,1111122 
NERRS,ioos:station:NOAA.NERRS:apaebwq:1,2017-11-02T05:45:00Z,29.7858,-84.8752,2.34,16.6,1111122 
NERRS,ioos:station:NOAA.NERRS:apaebwq:1,2017-11-02T06:45:00Z,29.7858,-84.8752,2.35,16.6,1111122 
NERRS,ioos:station:NOAA.NERRS:apaebwq:1,2017-11-02T07:45:00Z,29.7858,-84.8752,2.31,16.6,1111122 
NERRS,ioos:station:NOAA.NERRS:apaebwq:1,2017-11-02T08:45:00Z,29.7858,-84.8752,2.21,16.9,1111122 
NERRS,ioos:station:NOAA.NERRS:apaebwq:1,2017-11-02T09:45:00Z,29.7858,-84.8752,2.11,16.8,1111122 
NERRS,ioos:station:NOAA.NERRS:apaebwq:1,2017-11-02T10:45:00Z,29.7858,-84.8752,2.0,16.7,1111122 
NERRS,ioos:station:NOAA.NERRS:apaebwq:1,2017-11-02T11:45:00Z,29.7858,-84.8752,1.91,16.7,1111122 
NERRS,ioos:station:NOAA.NERRS:apaebwq:1,2017-11-02T12:45:00Z,29.7858,-84.8752,1.85,16.9,1111122 
NERRS,ioos:station:NOAA.NERRS:apaebwq:1,2017-11-02T13:45:00Z,29.7858,-84.8752,1.83,16.9,1111122 
NERRS,ioos:station:NOAA.NERRS:apaebwq:1,2017-11-02T14:45:00Z,29.7858,-84.8752,1.9,16.0,1111122 
NERRS,ioos:station:NOAA.NERRS:apaebwq:1,2017-11-02T15:45:00Z,29.7858,-84.8752,2.04,15.9,1111122 
NERRS,ioos:station:NOAA.NERRS:apaebwq:1,2017-11-02T16:45:00Z,29.7858,-84.8752,2.19,15.7,1111122 
NERRS,ioos:station:NOAA.NERRS:apaebwq:1,2017-11-02T17:45:00Z,29.7858,-84.8752,2.3,15.8,1111122 
NERRS,ioos:station:NOAA.NERRS:apaebwq:1,2017-11-02T18:45:00Z,29.7858,-84.8752,2.35,15.8,1111122 
NERRS,ioos:station:NOAA.NERRS:apaebwq:1,2017-11-02T19:45:00Z,29.7858,-84.8752,2.34,16.1,1111122 
NERRS,ioos:station:NOAA.NERRS:apaebwq:1,2017-11-02T20:45:00Z,29.7858,-84.8752,2.27,15.9,1111122 
NERRS,ioos:station:NOAA.NERRS:apaebwq:1,2017-11-02T21:45:00Z,29.7858,-84.8752,2.18,16.2,1111122 
NERRS,ioos:station:NOAA.NERRS:apaebwq:1,2017-11-02T22:45:00Z,29.7858,-84.8752,2.08,16.1,1111122 
NERRS,ioos:station:NOAA.NERRS:apaebwq:1,2017-11-02T23:45:00Z,29.7858,-84.8752,1.99,16.2,1111122 
NERRS,ioos:station:NOAA.NERRS:apaebwq:1,2017-11-03T00:45:00Z,29.7858,-84.8752,1.93,16.4,1111122 
NERRS,ioos:station:NOAA.NERRS:apaebwq:1,2017-11-03T01:45:00Z,29.7858,-84.8752,1.92,16.4,1111122 
NERRS,ioos:station:NOAA.NERRS:apaebwq:1,2017-11-03T02:45:00Z,29.7858,-84.8752,1.98,16.3,1111122 
NERRS,ioos:station:NOAA.NERRS:apaebwq:1,2017-11-03T03:45:00Z,29.7858,-84.8752,2.1,16.0,1111122 
NERRS,ioos:station:NOAA.NERRS:apaebwq:1,2017-11-03T04:45:00Z,29.7858,-84.8752,2.22,15.9,1111122 
NERRS,ioos:station:NOAA.NERRS:apaebwq:1,2017-11-03T05:45:00Z,29.7858,-84.8752,2.3,15.8,1111122 
NERRS,ioos:station:NOAA.NERRS:apaebwq:1,2017-11-03T06:45:00Z,29.7858,-84.8752,2.33,15.8,1111122 
NERRS,ioos:station:NOAA.NERRS:apaebwq:1,2017-11-03T07:45:00Z,29.7858,-84.8752,2.3,15.8,1111122 
NERRS,ioos:station:NOAA.NERRS:apaebwq:1,2017-11-03T08:45:00Z,29.7858,-84.8752,2.2,15.9,1111122 
NERRS,ioos:station:NOAA.NERRS:apaebwq:1,2017-11-03T09:45:00Z,29.7858,-84.8752,2.07,16.2,1111122 
NERRS,ioos:station:NOAA.NERRS:apaebwq:1,2017-11-03T10:45:00Z,29.7858,-84.8752,1.94,16.1,1111122 
NERRS,ioos:station:NOAA.NERRS:apaebwq:1,2017-11-03T11:45:00Z,29.7858,-84.8752,1.84,16.0,1111122 
NERRS,ioos:station:NOAA.NERRS:apaebwq:1,2017-11-03T12:45:00Z,29.7858,-84.8752,1.75,16.1,1111122 
NERRS,ioos:station:NOAA.NERRS:apaebwq:1,2017-11-03T13:45:00Z,29.7858,-84.8752,1.69,16.2,1111122 
NERRS,ioos:station:NOAA.NERRS:apaebwq:1,2017-11-03T14:45:00Z,29.7858,-84.8752,1.69,16.3,1111122 
NERRS,ioos:station:NOAA.NERRS:apaebwq:1,2017-11-03T15:45:00Z,29.7858,-84.8752,1.77,16.1,1111122 
NERRS,ioos:station:NOAA.NERRS:apaebwq:1,2017-11-03T16:45:00Z,29.7858,-84.8752,1.93,16.0,1111122 
NERRS,ioos:station:NOAA.NERRS:apaebwq:1,2017-11-03T17:45:00Z,29.7858,-84.8752,2.1,15.9,1111122 
NERRS,ioos:station:NOAA.NERRS:apaebwq:1,2017-11-03T18:45:00Z,29.7858,-84.8752,2.23,15.4,1111122 
NERRS,ioos:station:NOAA.NERRS:apaebwq:1,2017-11-03T19:45:00Z,29.7858,-84.8752,2.31,14.7,1111122 
NERRS,ioos:station:NOAA.NERRS:apaebwq:1,2017-11-03T20:45:00Z,29.7858,-84.8752,2.32,15.3,1111122 
NERRS,ioos:station:NOAA.NERRS:apaebwq:1,2017-11-03T21:45:00Z,29.7858,-84.8752,2.26,15.9,1111122 
NERRS,ioos:station:NOAA.NERRS:apaebwq:1,2017-11-03T22:45:00Z,29.7858,-84.8752,2.16,15.7,1111122 
NERRS,ioos:station:NOAA.NERRS:apaebwq:1,2017-11-03T23:45:00Z,29.7858,-84.8752,2.05,15.8,1111122 
NERRS,ioos:station:NOAA.NERRS:apaebwq:1,2017-11-04T01:45:00Z,29.7858,-84.8752,1.94,16.1,1111122 
NERRS,ioos:station:NOAA.NERRS:apaebwq:1,2017-11-04T02:45:00Z,29.7858,-84.8752,1.95,16.1,1111122 
NERRS,ioos:station:NOAA.NERRS:apaebwq:1,2017-11-04T03:45:00Z,29.7858,-84.8752,2.02,15.9,1111122 
NERRS,ioos:station:NOAA.NERRS:apaebwq:1,2017-11-04T04:45:00Z,29.7858,-84.8752,2.13,15.4,1111122 
NERRS,ioos:station:NOAA.NERRS:apaebwq:1,2017-11-04T05:45:00Z,29.7858,-84.8752,2.23,15.6,1111122 
NERRS,ioos:station:NOAA.NERRS:apaebwq:1,2017-11-04T06:45:00Z,29.7858,-84.8752,2.29,15.6,1111122 
NERRS,ioos:station:NOAA.NERRS:apaebwq:1,2017-11-04T07:45:00Z,29.7858,-84.8752,2.28,15.7,1111122 
NERRS,ioos:station:NOAA.NERRS:apaebwq:1,2017-11-04T08:45:00Z,29.7858,-84.8752,2.19,16.2,1111122 
NERRS,ioos:station:NOAA.NERRS:apaebwq:1,2017-11-04T09:45:00Z,29.7858,-84.8752,2.07,15.4,1111122 
NERRS,ioos:station:NOAA.NERRS:apaebwq:1,2017-11-04T10:45:00Z,29.7858,-84.8752,1.95,16.2,1111122 
NERRS,ioos:station:NOAA.NERRS:apaebwq:1,2017-11-04T11:45:00Z,29.7858,-84.8752,1.83,15.9,1111122 
NERRS,ioos:station:NOAA.NERRS:apaebwq:1,2017-11-04T12:45:00Z,29.7858,-84.8752,1.73,15.6,1111122 
NERRS,ioos:station:NOAA.NERRS:apaebwq:1,2017-11-04T13:45:00Z,29.7858,-84.8752,1.64,15.6,1111122 
NERRS,ioos:station:NOAA.NERRS:apaebwq:1,2017-11-04T14:45:00Z,29.7858,-84.8752,1.58,15.8,1111122 
NERRS,ioos:station:NOAA.NERRS:apaebwq:1,2017-11-04T15:45:00Z,29.7858,-84.8752,1.57,15.7,1111122 
NERRS,ioos:station:NOAA.NERRS:apaebwq:1,2017-11-04T16:45:00Z,29.7858,-84.8752,1.67,15.2,1111122 
NERRS,ioos:station:NOAA.NERRS:apaebwq:1,2017-11-04T17:45:00Z,29.7858,-84.8752,1.83,14.9,1111122 
NERRS,ioos:station:NOAA.NERRS:apaebwq:1,2017-11-04T18:45:00Z,29.7858,-84.8752,2.01,14.6,1111122 
NERRS,ioos:station:NOAA.NERRS:apaebwq:1,2017-11-04T19:45:00Z,29.7858,-84.8752,2.16,14.3,1111122 
NERRS,ioos:station:NOAA.NERRS:apaebwq:1,2017-11-04T20:45:00Z,29.7858,-84.8752,2.25,14.0,1111122 
NERRS,ioos:station:NOAA.NERRS:apaebwq:1,2017-11-04T21:45:00Z,29.7858,-84.8752,2.27,13.8,1111122 
NERRS,ioos:station:NOAA.NERRS:apaebwq:1,2017-11-04T22:45:00Z,29.7858,-84.8752,2.24,14.1,1111122 
NERRS,ioos:station:NOAA.NERRS:apaebwq:1,2017-11-04T23:45:00Z,29.7858,-84.8752,2.17,14.5,1111122 
NERRS,ioos:station:NOAA.NERRS:apaebwq:1,2017-11-05T00:45:00Z,29.7858,-84.8752,2.07,14.6,1111122 
NERRS,ioos:station:NOAA.NERRS:apaebwq:1,2017-11-05T01:45:00Z,29.7858,-84.8752,2.0,14.7,1111122 
NERRS,ioos:station:NOAA.NERRS:apaebwq:1,2017-11-05T02:45:00Z,29.7858,-84.8752,1.99,14.9,1111122 
NERRS,ioos:station:NOAA.NERRS:apaebwq:1,2017-11-05T03:45:00Z,29.7858,-84.8752,2.03,14.8,1111122 
NERRS,ioos:station:NOAA.NERRS:apaebwq:1,2017-11-05T04:45:00Z,29.7858,-84.8752,2.11,14.3,1111122 
NERRS,ioos:station:NOAA.NERRS:apaebwq:1,2017-11-05T05:45:00Z,29.7858,-84.8752,2.21,14.2,1111122 
NERRS,ioos:station:NOAA.NERRS:apaebwq:1,2017-11-05T06:45:00Z,29.7858,-84.8752,2.31,14.2,1111122 
NERRS,ioos:station:NOAA.NERRS:apaebwq:1,2017-11-05T07:45:00Z,29.7858,-84.8752,2.35,14.0,1111122 
NERRS,ioos:station:NOAA.NERRS:apaebwq:1,2017-11-05T08:45:00Z,29.7858,-84.8752,2.32,14.0,1111122 
NERRS,ioos:station:NOAA.NERRS:apaebwq:1,2017-11-05T09:45:00Z,29.7858,-84.8752,2.21,15.2,1111122 
NERRS,ioos:station:NOAA.NERRS:apaebwq:1,2017-11-05T10:45:00Z,29.7858,-84.8752,2.07,14.8,1111122 
NERRS,ioos:station:NOAA.NERRS:apaebwq:1,2017-11-05T11:45:00Z,29.7858,-84.8752,1.94,14.8,1111122 
NERRS,ioos:station:NOAA.NERRS:apaebwq:1,2017-11-05T12:45:00Z,29.7858,-84.8752,1.83,14.8,1111122 
NERRS,ioos:station:NOAA.NERRS:apaebwq:1,2017-11-05T13:45:00Z,29.7858,-84.8752,1.73,14.2,1111122 
NERRS,ioos:station:NOAA.NERRS:apaebwq:1,2017-11-05T14:45:00Z,29.7858,-84.8752,1.64,14.8,1111122 
NERRS,ioos:station:NOAA.NERRS:apaebwq:1,2017-11-05T15:45:00Z,29.7858,-84.8752,1.58,14.7,1111122 
NERRS,ioos:station:NOAA.NERRS:apaebwq:1,2017-11-05T16:45:00Z,29.7858,-84.8752,1.6,14.7,1111122 
NERRS,ioos:station:NOAA.NERRS:apaebwq:1,2017-11-05T17:45:00Z,29.7858,-84.8752,1.72,14.6,1111122 
NERRS,ioos:station:NOAA.NERRS:apaebwq:1,2017-11-05T18:45:00Z,29.7858,-84.8752,1.9,14.0,1111122 
NERRS,ioos:station:NOAA.NERRS:apaebwq:1,2017-11-05T19:45:00Z,29.7858,-84.8752,2.07,13.7,1111122 
NERRS,ioos:station:NOAA.NERRS:apaebwq:1,2017-11-05T20:45:00Z,29.7858,-84.8752,2.21,13.6,1111122 
NERRS,ioos:station:NOAA.NERRS:apaebwq:1,2017-11-05T21:45:00Z,29.7858,-84.8752,2.3,13.3,1111122 
NERRS,ioos:station:NOAA.NERRS:apaebwq:1,2017-11-05T22:45:00Z,29.7858,-84.8752,2.34,13.2,1111122 
NERRS,ioos:station:NOAA.NERRS:apaebwq:1,2017-11-05T23:45:00Z,29.7858,-84.8752,2.32,13.6,1111122 
NERRS,ioos:station:NOAA.NERRS:apaebwq:1,2017-11-06T00:45:00Z,29.7858,-84.8752,2.23,13.6,1111122 
NERRS,ioos:station:NOAA.NERRS:apaebwq:1,2017-11-06T01:45:00Z,29.7858,-84.8752,2.14,14.1,1111122 
NERRS,ioos:station:NOAA.NERRS:apaebwq:1,2017-11-06T02:45:00Z,29.7858,-84.8752,2.09,14.1,1111122 
NERRS,ioos:station:NOAA.NERRS:apaebwq:1,2017-11-06T03:45:00Z,29.7858,-84.8752,2.11,14.1,1111122 
NERRS,ioos:station:NOAA.NERRS:apaebwq:1,2017-11-06T04:45:00Z,29.7858,-84.8752,2.15,14.1,1111122 
NERRS,ioos:station:NOAA.NERRS:apaebwq:1,2017-11-06T05:45:00Z,29.7858,-84.8752,2.23,13.6,1111122 
NERRS,ioos:station:NOAA.NERRS:apaebwq:1,2017-11-06T06:45:00Z,29.7858,-84.8752,2.31,13.3,1111122 
NERRS,ioos:station:NOAA.NERRS:apaebwq:1,2017-11-06T07:45:00Z,29.7858,-84.8752,2.38,13.3,1111122 
NERRS,ioos:station:NOAA.NERRS:apaebwq:1,2017-11-06T08:45:00Z,29.7858,-84.8752,2.4,13.3,1111122 
NERRS,ioos:station:NOAA.NERRS:apaebwq:1,2017-11-06T09:45:00Z,29.7858,-84.8752,2.34,13.3,1111122 
NERRS,ioos:station:NOAA.NERRS:apaebwq:1,2017-11-06T10:45:00Z,29.7858,-84.8752,2.21,14.3,1111122 
NERRS,ioos:station:NOAA.NERRS:apaebwq:1,2017-11-06T11:45:00Z,29.7858,-84.8752,2.08,13.9,1111122 
NERRS,ioos:station:NOAA.NERRS:apaebwq:1,2017-11-06T12:45:00Z,29.7858,-84.8752,1.94,13.8,1111122 
NERRS,ioos:station:NOAA.NERRS:apaebwq:1,2017-11-06T13:45:00Z,29.7858,-84.8752,1.82,13.9,1111122 
NERRS,ioos:station:NOAA.NERRS:apaebwq:1,2017-11-06T14:45:00Z,29.7858,-84.8752,1.72,14.0,1111122 
NERRS,ioos:station:NOAA.NERRS:apaebwq:1,2017-11-06T15:45:00Z,29.7858,-84.8752,1.63,14.4,1111122 
NERRS,ioos:station:NOAA.NERRS:apaebwq:1,2017-11-06T16:45:00Z,29.7858,-84.8752,1.57,14.6,1111122 
NERRS,ioos:station:NOAA.NERRS:apaebwq:1,2017-11-06T17:45:00Z,29.7858,-84.8752,1.57,14.7,1111122 
NERRS,ioos:station:NOAA.NERRS:apaebwq:1,2017-11-06T18:45:00Z,29.7858,-84.8752,1.69,14.4,1111122 
NERRS,ioos:station:NOAA.NERRS:apaebwq:1,2017-11-06T19:45:00Z,29.7858,-84.8752,1.87,13.9,1111122 
NERRS,ioos:station:NOAA.NERRS:apaebwq:1,2017-11-06T20:45:00Z,29.7858,-84.8752,2.05,13.3,1111122 
NERRS,ioos:station:NOAA.NERRS:apaebwq:1,2017-11-06T21:45:00Z,29.7858,-84.8752,2.19,13.3,1111122 
NERRS,ioos:station:NOAA.NERRS:apaebwq:1,2017-11-06T22:45:00Z,29.7858,-84.8752,2.28,13.4,1111122 
NERRS,ioos:station:NOAA.NERRS:apaebwq:1,2017-11-06T23:45:00Z,29.7858,-84.8752,2.31,13.6,1111122 
NERRS,ioos:station:NOAA.NERRS:apaebwq:1,2017-11-07T00:45:00Z,29.7858,-84.8752,2.27,13.6,1111122 
NERRS,ioos:station:NOAA.NERRS:apaebwq:1,2017-11-07T01:45:00Z,29.7858,-84.8752,2.19,13.4,1111122 
NERRS,ioos:station:NOAA.NERRS:apaebwq:1,2017-11-07T02:45:00Z,29.7858,-84.8752,2.1,13.5,1111122 
NERRS,ioos:station:NOAA.NERRS:apaebwq:1,2017-11-07T03:45:00Z,29.7858,-84.8752,2.08,13.6,1111122 
NERRS,ioos:station:NOAA.NERRS:apaebwq:1,2017-11-07T04:45:00Z,29.7858,-84.8752,2.09,13.7,1111122 
NERRS,ioos:station:NOAA.NERRS:apaebwq:1,2017-11-07T05:45:00Z,29.7858,-84.8752,2.13,13.6,1111122 
NERRS,ioos:station:NOAA.NERRS:apaebwq:1,2017-11-07T06:45:00Z,29.7858,-84.8752,2.21,13.3,1111122 
NERRS,ioos:station:NOAA.NERRS:apaebwq:1,2017-11-07T07:45:00Z,29.7858,-84.8752,2.31,13.2,1111122 
NERRS,ioos:station:NOAA.NERRS:apaebwq:1,2017-11-07T08:45:00Z,29.7858,-84.8752,2.36,13.2,1111122 
NERRS,ioos:station:NOAA.NERRS:apaebwq:1,2017-11-07T09:45:00Z,29.7858,-84.8752,2.35,13.3,1111122 
NERRS,ioos:station:NOAA.NERRS:apaebwq:1,2017-11-07T10:45:00Z,29.7858,-84.8752,2.26,13.1,1111122 
NERRS,ioos:station:NOAA.NERRS:apaebwq:1,2017-11-07T11:45:00Z,29.7858,-84.8752,2.14,13.6,1111122 
NERRS,ioos:station:NOAA.NERRS:apaebwq:1,2017-11-07T12:45:00Z,29.7858,-84.8752,2.0,13.8,1111122 
NERRS,ioos:station:NOAA.NERRS:apaebwq:1,2017-11-07T13:45:00Z,29.7858,-84.8752,1.89,13.9,1111122 
NERRS,ioos:station:NOAA.NERRS:apaebwq:1,2017-11-07T16:45:00Z,29.7858,-84.8752,1.61,14.7,1111122 
NERRS,ioos:station:NOAA.NERRS:apaebwq:1,2017-11-07T18:45:00Z,29.7858,-84.8752,1.61,15.0,1111122 
NERRS,ioos:station:NOAA.NERRS:apaebwq:1,2017-11-07T19:45:00Z,29.7858,-84.8752,1.77,14.4,1111122 
NERRS,ioos:station:NOAA.NERRS:apaebwq:1,2017-11-07T20:45:00Z,29.7858,-84.8752,1.96,14.1,1111122 
NERRS,ioos:station:NOAA.NERRS:apaebwq:1,2017-11-07T22:45:00Z,29.7858,-84.8752,2.23,13.3,1111122 
NERRS,ioos:station:NOAA.NERRS:apaebwq:1,2017-11-07T23:45:00Z,29.7858,-84.8752,2.28,13.3,1111122 
NERRS,ioos:station:NOAA.NERRS:apaebwq:1,2017-11-08T00:45:00Z,29.7858,-84.8752,2.31,13.8,1111122 
NERRS,ioos:station:NOAA.NERRS:apaebwq:1,2017-11-08T01:45:00Z,29.7858,-84.8752,2.28,13.6,1111122 
NERRS,ioos:station:NOAA.NERRS:apaebwq:1,2017-11-08T03:45:00Z,29.7858,-84.8752,2.15,14.0,1111122 
NERRS,ioos:station:NOAA.NERRS:apaebwq:1,2017-11-08T05:45:00Z,29.7858,-84.8752,2.14,14.1,1111122 
NERRS,ioos:station:NOAA.NERRS:apaebwq:1,2017-11-08T07:45:00Z,29.7858,-84.8752,2.26,14.0,1111122 
NERRS,ioos:station:NOAA.NERRS:apaebwq:1,2017-11-08T08:45:00Z,29.7858,-84.8752,2.34,12.8,1111122 
NERRS,ioos:station:NOAA.NERRS:apaebwq:1,2017-11-08T09:45:00Z,29.7858,-84.8752,2.39,12.9,1111122 
NERRS,ioos:station:NOAA.NERRS:apaebwq:1,2017-11-08T10:45:00Z,29.7858,-84.8752,2.35,12.8,1111122 
NERRS,ioos:station:NOAA.NERRS:apaebwq:1,2017-11-08T11:45:00Z,29.7858,-84.8752,2.25,14.0,1111122 
NERRS,ioos:station:NOAA.NERRS:apaebwq:1,2017-11-08T12:45:00Z,29.7858,-84.8752,2.13,14.0,1111122 
NERRS,ioos:station:NOAA.NERRS:apaebwq:1,2017-11-08T13:45:00Z,29.7858,-84.8752,2.01,13.7,1111122 
NERRS,ioos:station:NOAA.NERRS:apaebwq:1,2017-11-08T14:45:00Z,29.7858,-84.8752,1.89,13.8,1111122 
NERRS,ioos:station:NOAA.NERRS:apaebwq:1,2017-11-08T15:45:00Z,29.7858,-84.8752,1.78,13.9,1111122 
NERRS,ioos:station:NOAA.NERRS:apaebwq:1,2017-11-08T16:45:00Z,29.7858,-84.8752,1.68,14.2,1111122 
NERRS,ioos:station:NOAA.NERRS:apaebwq:1,2017-11-08T17:45:00Z,29.7858,-84.8752,1.6,14.5,1111122 
NERRS,ioos:station:NOAA.NERRS:apaebwq:1,2017-11-08T18:45:00Z,29.7858,-84.8752,1.57,14.6,1111122 
NERRS,ioos:station:NOAA.NERRS:apaebwq:1,2017-11-08T19:45:00Z,29.7858,-84.8752,1.65,14.5,1111122 
NERRS,ioos:station:NOAA.NERRS:apaebwq:1,2017-11-08T20:45:00Z,29.7858,-84.8752,1.81,14.1,1111122 
NERRS,ioos:station:NOAA.NERRS:apaebwq:1,2017-11-08T21:45:00Z,29.7858,-84.8752,1.97,14.0,1111122 
NERRS,ioos:station:NOAA.NERRS:apaebwq:1,2017-11-08T22:45:00Z,29.7858,-84.8752,2.1,13.8,1111122 
NERRS,ioos:station:NOAA.NERRS:apaebwq:1,2017-11-08T23:45:00Z,29.7858,-84.8752,2.2,13.2,1111122 
NERRS,ioos:station:NOAA.NERRS:apaebwq:1,2017-11-09T01:45:00Z,29.7858,-84.8752,2.28,13.2,1111122 
NERRS,ioos:station:NOAA.NERRS:apaebwq:1,2017-11-09T02:45:00Z,29.7858,-84.8752,2.26,13.1,1111122 
NERRS,ioos:station:NOAA.NERRS:apaebwq:1,2017-11-09T03:45:00Z,29.7858,-84.8752,2.22,13.0,1111122 
NERRS,ioos:station:NOAA.NERRS:apaebwq:1,2017-11-09T04:45:00Z,29.7858,-84.8752,2.17,13.7,1111122 
NERRS,ioos:station:NOAA.NERRS:apaebwq:1,2017-11-09T05:45:00Z,29.7858,-84.8752,2.14,13.7,1111122 
NERRS,ioos:station:NOAA.NERRS:apaebwq:1,2017-11-09T06:45:00Z,29.7858,-84.8752,2.14,13.7,1111122 
NERRS,ioos:station:NOAA.NERRS:apaebwq:1,2017-11-09T07:45:00Z,29.7858,-84.8752,2.18,13.6,1111122 
NERRS,ioos:station:NOAA.NERRS:apaebwq:1,2017-11-09T08:45:00Z,29.7858,-84.8752,2.26,12.8,1111122 
NERRS,ioos:station:NOAA.NERRS:apaebwq:1,2017-11-09T09:45:00Z,29.7858,-84.8752,2.32,13.0,1111122 
NERRS,ioos:station:NOAA.NERRS:apaebwq:1,2017-11-09T10:45:00Z,29.7858,-84.8752,2.33,12.7,1111122 
NERRS,ioos:station:NOAA.NERRS:apaebwq:1,2017-11-09T11:45:00Z,29.7858,-84.8752,2.27,13.2,1111122 
NERRS,ioos:station:NOAA.NERRS:apaebwq:1,2017-11-09T12:45:00Z,29.7858,-84.8752,2.21,13.4,1111122 
NERRS,ioos:station:NOAA.NERRS:apaebwq:1,2017-11-09T13:45:00Z,29.7858,-84.8752,2.11,13.5,1111122 
NERRS,ioos:station:NOAA.NERRS:apaebwq:1,2017-11-09T14:45:00Z,29.7858,-84.8752,2.02,13.4,1111122 
NERRS,ioos:station:NOAA.NERRS:apaebwq:1,2017-11-09T15:45:00Z,29.7858,-84.8752,1.9,13.5,1111122 
NERRS,ioos:station:NOAA.NERRS:apaebwq:1,2017-11-09T16:45:00Z,29.7858,-84.8752,1.8,13.9,1111122 
NERRS,ioos:station:NOAA.NERRS:apaebwq:1,2017-11-09T17:45:00Z,29.7858,-84.8752,1.71,14.1,1111122 
NERRS,ioos:station:NOAA.NERRS:apaebwq:1,2017-11-09T18:45:00Z,29.7858,-84.8752,1.6,14.4,1111122 
NERRS,ioos:station:NOAA.NERRS:apaebwq:1,2017-11-09T19:45:00Z,29.7858,-84.8752,1.55,14.8,1111122 
NERRS,ioos:station:NOAA.NERRS:apaebwq:1,2017-11-09T20:45:00Z,29.7858,-84.8752,1.56,14.7,1111122 
NERRS,ioos:station:NOAA.NERRS:apaebwq:1,2017-11-09T21:45:00Z,29.7858,-84.8752,1.69,14.2,1111122 
NERRS,ioos:station:NOAA.NERRS:apaebwq:1,2017-11-09T22:45:00Z,29.7858,-84.8752,1.87,13.9,1111122 
NERRS,ioos:station:NOAA.NERRS:apaebwq:1,2017-11-09T23:45:00Z,29.7858,-84.8752,2.03,13.3,1111122 
NERRS,ioos:station:NOAA.NERRS:apaebwq:1,2017-11-10T00:45:00Z,29.7858,-84.8752,2.1,13.2,1111122 
NERRS,ioos:station:NOAA.NERRS:apaebwq:1,2017-11-10T01:45:00Z,29.7858,-84.8752,2.15,13.1,1111122 
NERRS,ioos:station:NOAA.NERRS:apaebwq:1,2017-11-10T02:45:00Z,29.7858,-84.8752,2.15,13.2,1111122 
NERRS,ioos:station:NOAA.NERRS:apaebwq:1,2017-11-10T03:45:00Z,29.7858,-84.8752,2.13,13.3,1111122 
NERRS,ioos:station:NOAA.NERRS:apaebwq:1,2017-11-10T04:45:00Z,29.7858,-84.8752,2.09,13.4,1111122 
NERRS,ioos:station:NOAA.NERRS:apaebwq:1,2017-11-10T05:45:00Z,29.7858,-84.8752,2.06,13.1,1111122 
NERRS,ioos:station:NOAA.NERRS:apaebwq:1,2017-11-10T06:45:00Z,29.7858,-84.8752,2.0,13.9,1111122 
NERRS,ioos:station:NOAA.NERRS:apaebwq:1,2017-11-10T07:45:00Z,29.7858,-84.8752,2.02,13.7,1111122 
NERRS,ioos:station:NOAA.NERRS:apaebwq:1,2017-11-10T08:45:00Z,29.7858,-84.8752,2.1,13.1,1111122 
NERRS,ioos:station:NOAA.NERRS:apaebwq:1,2017-11-10T09:45:00Z,29.7858,-84.8752,2.16,13.4,1111122 
NERRS,ioos:station:NOAA.NERRS:apaebwq:1,2017-11-10T10:45:00Z,29.7858,-84.8752,2.22,13.6,1111122 
NERRS,ioos:station:NOAA.NERRS:apaebwq:1,2017-11-10T11:45:00Z,29.7858,-84.8752,2.22,13.7,1111122 
NERRS,ioos:station:NOAA.NERRS:apaebwq:1,2017-11-10T12:45:00Z,29.7858,-84.8752,2.2,13.7,1111122 
NERRS,ioos:station:NOAA.NERRS:apaebwq:1,2017-11-10T13:45:00Z,29.7858,-84.8752,2.13,13.5,1111122 
NERRS,ioos:station:NOAA.NERRS:apaebwq:1,2017-11-10T14:45:00Z,29.7858,-84.8752,2.04,13.6,1111122 
NERRS,ioos:station:NOAA.NERRS:apaebwq:1,2017-11-10T15:45:00Z,29.7858,-84.8752,1.94,13.8,1111122 
NERRS,ioos:station:NOAA.NERRS:apaebwq:1,2017-11-10T16:45:00Z,29.7858,-84.8752,1.86,14.0,1111122 
NERRS,ioos:station:NOAA.NERRS:apaebwq:1,2017-11-10T17:45:00Z,29.7858,-84.8752,1.78,14.0,1111122 
NERRS,ioos:station:NOAA.NERRS:apaebwq:1,2017-11-10T18:45:00Z,29.7858,-84.8752,1.7,14.2,1111122 
NERRS,ioos:station:NOAA.NERRS:apaebwq:1,2017-11-10T19:45:00Z,29.7858,-84.8752,1.67,14.2,1111122 
NERRS,ioos:station:NOAA.NERRS:apaebwq:1,2017-11-10T20:45:00Z,29.7858,-84.8752,1.68,14.1,1111122 
NERRS,ioos:station:NOAA.NERRS:apaebwq:1,2017-11-10T21:45:00Z,29.7858,-84.8752,1.73,14.0,1111122 
NERRS,ioos:station:NOAA.NERRS:apaebwq:1,2017-11-10T22:45:00Z,29.7858,-84.8752,1.82,14.0,1111122 
NERRS,ioos:station:NOAA.NERRS:apaebwq:1,2017-11-10T23:45:00Z,29.7858,-84.8752,1.95,13.8,1111122 
NERRS,ioos:station:NOAA.NERRS:apaebwq:1,2017-11-11T00:45:00Z,29.7858,-84.8752,2.04,13.5,1111122 
NERRS,ioos:station:NOAA.NERRS:apaebwq:1,2017-11-11T01:45:00Z,29.7858,-84.8752,2.09,13.3,1111122 
NERRS,ioos:station:NOAA.NERRS:apaebwq:1,2017-11-11T02:45:00Z,29.7858,-84.8752,2.1,13.6,1111122 
NERRS,ioos:station:NOAA.NERRS:apaebwq:1,2017-11-11T03:45:00Z,29.7858,-84.8752,2.09,15.7,1111122 
NERRS,ioos:station:NOAA.NERRS:apaebwq:1,2017-11-11T04:45:00Z,29.7858,-84.8752,2.08,19.4,1111122 
NERRS,ioos:station:NOAA.NERRS:apaebwq:1,2017-11-11T05:45:00Z,29.7858,-84.8752,2.08,20.4,1111122 
NERRS,ioos:station:NOAA.NERRS:apaebwq:1,2017-11-11T06:45:00Z,29.7858,-84.8752,2.06,20.7,1111122 
NERRS,ioos:station:NOAA.NERRS:apaebwq:1,2017-11-11T07:45:00Z,29.7858,-84.8752,2.04,21.2,1111122 
NERRS,ioos:station:NOAA.NERRS:apaebwq:1,2017-11-11T08:45:00Z,29.7858,-84.8752,2.03,21.6,1111122 
NERRS,ioos:station:NOAA.NERRS:apaebwq:1,2017-11-11T09:45:00Z,29.7858,-84.8752,2.06,21.8,1111122 
NERRS,ioos:station:NOAA.NERRS:apaebwq:1,2017-11-11T10:45:00Z,29.7858,-84.8752,2.06,21.9,1111122 
NERRS,ioos:station:NOAA.NERRS:apaebwq:1,2017-11-11T11:45:00Z,29.7858,-84.8752,2.08,21.9,1111122 
NERRS,ioos:station:NOAA.NERRS:apaebwq:1,2017-11-11T12:45:00Z,29.7858,-84.8752,2.08,21.7,1111122 
NERRS,ioos:station:NOAA.NERRS:apaebwq:1,2017-11-11T13:45:00Z,29.7858,-84.8752,2.1,21.7,1111122 
NERRS,ioos:station:NOAA.NERRS:apaebwq:1,2017-11-11T14:45:00Z,29.7858,-84.8752,2.13,22.1,1111122 